Home   Weather   Brisbane   Past weeks
Flag for Australia

Past Weather in Brisbane, Queensland, Australia — Yesterday and Last 2 Weeks

Now
68 °F

Passing clouds.


Feels Like: 68 °F
Forecast: 73 / 59 °F
Wind: 6 mph from Southeast

Location: Brisbane Airport M. O

Current Time: May 22, 2019 at 6:56:14 pm

Latest Report: May 22, 2019 at 6:00 pm


Visibility: N/A

Pressure: 30.27 "Hg

Humidity: 78%

Dew Point: 61 °F

Location of BrisbaneLocation

Past Weather in Brisbane — Graph

°F

Brisbane Temperature Yesterday

Maximum temperature yesterday: 73 °F (at 11:00 am)
Minimum temperature yesterday: 59 °F (at 11:00 pm)
Average temperature yesterday: 66 °F

High & Low Weather Summary for the Past Weeks

 TemperatureHumidityPressure
High81 °F (May 8, 2:30 pm)100% (May 14, 5:30 am)30.36 "Hg (May 14, 5:30 am)
Low50 °F (May 9, 5:30 am)20% (May 11, 1:00 pm)29.89 "Hg (May 16, 9:00 am)
Average66 °F74%30.21 "Hg
* Reported May 7 5:30 pm — May 22 5:30 pm, Brisbane. Weather by CustomWeather, © 2019

Note: Actual official high and low records may vary slightly from our data, if they occured in-between our weather recording intervals... More about our weather records

Advertising

Brisbane Weather History for the Previous 24 Hours

Scroll right to see more
 ConditionsComfort  
Time TempWeatherWind HumidityBarometerVisibility
5:30 pm
Wed, May 22
70 °FPassing clouds.6 mph73%30.27 "HgN/A
5:00 pm70 °FPartly sunny.6 mph69%30.27 "HgN/A
4:30 pm70 °FPartly sunny.7 mph69%30.27 "HgN/A
4:00 pm72 °FPartly sunny.2 mph53%30.27 "HgN/A
3:30 pm70 °FBroken clouds.7 mph64%30.27 "HgN/A
3:00 pm70 °FSprinkles. Broken clouds.10 mph64%30.27 "HgN/A
2:30 pm73 °FPartly sunny.6 mph61%30.27 "HgN/A
2:00 pm72 °FPartly sunny.6 mph61%30.27 "HgN/A
1:30 pm72 °FPartly sunny.8 mph65%30.27 "HgN/A
1:00 pm72 °FPartly sunny.9 mph61%30.27 "HgN/A
12:30 pm72 °FPartly sunny.9 mph61%30.30 "HgN/A
12:00 pm70 °FBroken clouds.10 mph69%30.30 "HgN/A
11:30 am70 °FBroken clouds.9 mph73%30.33 "HgN/A
11:00 am70 °FSprinkles. Partly sunny.9 mph73%30.33 "HgN/A
10:00 am72 °FPassing clouds.8 mph65%30.33 "HgN/A
9:30 am68 °FPassing clouds.8 mph73%30.33 "HgN/A
9:00 am66 °FPassing clouds.9 mph78%30.33 "HgN/A
8:30 am64 °FPassing clouds.10 mph83%30.33 "HgN/A
8:00 am63 °FPassing clouds.9 mph88%30.33 "HgN/A
7:30 am61 °FPassing clouds.8 mph94%30.33 "HgN/A
7:00 am57 °FPassing clouds.9 mph100%30.33 "HgN/A
6:30 am57 °FPassing clouds.9 mph94%30.30 "HgN/A
6:00 am57 °FPassing clouds.8 mph94%30.30 "HgN/A
5:30 am57 °FPassing clouds.8 mph94%30.30 "HgN/A
5:00 am57 °FPassing clouds.8 mph100%30.30 "HgN/A
4:30 am57 °FPassing clouds.9 mph94%30.30 "HgN/A
4:00 am57 °FPassing clouds.8 mph94%30.27 "HgN/A
3:30 am57 °FPassing clouds.8 mph94%30.27 "HgN/A
3:00 am57 °FPassing clouds.8 mph100%30.30 "HgN/A
2:30 am59 °FPassing clouds.7 mph94%30.30 "HgN/A
2:00 am61 °FPassing clouds.7 mph88%30.30 "HgN/A
1:30 am59 °FPassing clouds.8 mph94%30.30 "HgN/A
1:00 am59 °FClear.6 mph94%30.30 "Hg10 mi
12:30 am61 °FClear.7 mph88%30.30 "Hg10 mi
12:00 am59 °FClear.7 mph94%30.30 "Hg10 mi
11:30 pm
Tue, May 21
59 °FClear.6 mph94%30.30 "Hg10 mi
11:00 pm59 °FClear.6 mph94%30.30 "Hg10 mi
10:30 pm61 °FClear.6 mph94%30.30 "Hg10 mi
10:00 pm61 °FClear.5 mph88%30.30 "Hg10 mi
9:30 pm61 °FClear.5 mph94%30.30 "Hg10 mi
9:00 pm61 °FClear.No wind94%30.30 "Hg10 mi
8:30 pm61 °FClear.No wind94%30.30 "Hg10 mi
8:00 pm63 °FClear.No wind88%30.30 "Hg10 mi
7:30 pm63 °FClear.5 mph94%30.30 "Hg10 mi
7:00 pm66 °FClear.1 mph83%30.27 "Hg10 mi
6:30 pm66 °FPassing clouds.3 mph83%30.27 "HgN/A
6:00 pm66 °FPassing clouds.5 mph83%30.27 "HgN/A
Weather by CustomWeather, © 2019

See weather overview